This demonstration page uses our WeatherBlox Daily Observations layout. Learn more.

39.92423, -83.80882

Hourly Observations for December 23, 2019

Temp ( °F °C ) Dew Point ( °F °C ) Humidity (%) Winds ( mph kmh ) Pressure ( in mb ) Visibility ( mi km ) Precip ( " mm )
12:56 am 00:56 Clear with Mist and Fog 31 -0.6 31 -0.6 100 100 S 5 7 30.21 1023 6 9.65604 0 0
1:56 am 01:56 Clear 29 -1.7 29 -1.7 100 100 SSE 3 6 30.19 1022 7 11.26538 0 0
2:43 am 02:43 Clear with Mist and Fog 28 -2 28 -2 100 100 Calm 30.22 1023 1.75 2.816345 0 0
2:46 am 02:46 Clear with Mist and Fog 28 -2 28 -2 100 100 ENE 3 6 30.21 1023 0.75 1.207005 0 0
2:54 am 02:54 Clear with Freezing Fog 28 -2 28 -2 100 100 ENE 3 6 30.22 1023 0.25 0.402335 0 0
2:56 am 02:56 Clear with Freezing Fog 28 -2.2 28 -2.2 100 100 NE 3 6 30.18 1022 0.25 0.402335 0 0
3:06 am 03:06 Clear with Mist and Fog 28 -2 28 -2 100 100 NE 5 7 30.21 1023 0.75 1.207005 0 0
3:09 am 03:09 Clear with Mist and Fog 28 -2 28 -2 100 100 NE 5 7 30.21 1023 1.5 2.41401 0 0
3:11 am 03:11 Clear with Mist and Fog 28 -2 28 -2 100 100 ENE 3 6 30.21 1023 3 4.82802 0 0
3:24 am 03:24 Clear with Mist and Fog 28 -2 28 -2 100 100 ESE 5 7 30.22 1023 2.5 4.02335 0 0
3:34 am 03:34 Clear with Mist and Fog 30 -1 30 -1 100 100 SE 3 6 30.22 1023 4 6.43736 0 0
3:56 am 03:56 Clear with Mist and Fog 30 -1.1 30 -1.1 100 100 Calm 30.19 1022 4 6.43736 0 0
4:56 am 04:56 Clear with Mist and Fog 28 -2.2 28 -2.2 100 100 ENE 5 7 30.18 1022 2.5 4.02335 0 0
5:04 am 05:04 Clear with Mist and Fog 27 -3 27 -3 100 100 ENE 5 7 30.22 1023 3 4.82802 0 0
5:56 am 05:56 Clear with Mist and Fog 30 -1.1 30 -1.1 100 100 SE 3 6 30.19 1022 4 6.43736 0 0
6:56 am 06:56 Clear with Mist and Fog 25 -3.9 25 -3.9 100 100 Calm 30.2 1023 6 9.65604 0 0
7:56 am 07:56 Sunny with Mist and Fog 27 -2.8 27 -2.8 100 100 ENE 3 6 30.2 1023 5 8.0467 0 0
8:56 am 08:56 Sunny with Mist and Fog 31 -0.6 31 -0.6 100 100 Calm 30.19 1023 4 6.43736 0 0
9:56 am 09:56 Sunny 38 3.3 37 2.8 97 97 Calm 30.2 1023 10 16.0934 0 0
10:56 am 10:56 Sunny 45 7.2 42 5.6 90 90 SE 3 6 30.2 1023 10 16.0934 0 0
11:56 am 11:56 Sunny 50 10 42 5.6 74 74 Calm 30.16 1021 10 16.0934 0 0
12:56 pm 12:56 Sunny 54 12.2 42 5.6 64 64 Calm 30.13 1020 10 16.0934 0 0
1:56 pm 13:56 Sunny 56 13.3 42 5.6 60 60 WNW 6 9 30.12 1020 10 16.0934 0 0
2:56 pm 14:56 Sunny 55 12.8 43 6.1 64 64 WNW 5 7 30.12 1020 10 16.0934 0 0
3:56 pm 15:56 Sunny 55 12.8 43 6.1 64 64 NW 5 7 30.12 1020 10 16.0934 0 0
4:56 pm 16:56 Sunny 51 10.6 42 5.6 71 71 Calm 30.1 1019 10 16.0934 0 0
5:56 pm 17:56 Clear 46 7.8 41 5 83 83 NNW 5 7 30.11 1020 10 16.0934 0 0
6:56 pm 18:56 Clear 45 7.2 41 5 86 86 S 6 9 30.13 1020 10 16.0934 0 0
7:56 pm 19:56 Clear 39 3.9 38 3.3 96 96 Calm 30.14 1021 10 16.0934 0 0
8:56 pm 20:56 Clear 36 2.2 36 2.2 100 100 Calm 30.13 1020 10 16.0934 0 0
9:56 pm 21:56 Clear 34 1.1 34 1.1 100 100 Calm 30.14 1021 10 16.0934 0 0
10:52 pm 22:52 Clear with Mist and Fog 34 1 34 1 100 100 Calm 30.15 1021 1.5 2.41401 0 0
10:54 pm 22:54 Clear with Mist and Fog 32 0 32 0 100 100 Calm 30.15 1021 0.75 1.207005 0 0
10:56 pm 22:56 Clear with Fog 32 0 32 0 100 100 Calm 30.12 1020 0.5 0.80467 0 0
11:05 pm 23:05 Clear with Mist and Fog 32 0 32 0 100 100 Calm 30.15 1021 1.25 2.011675 0 0
11:11 pm 23:11 Clear with Mist and Fog 30 -1 30 -1 100 100 Calm 30.16 1021 4 6.43736 0 0
11:41 pm 23:41 Clear with Mist and Fog 30 -1 30 -1 100 100 Calm 30.15 1021 1.5 2.41401 0 0
11:56 pm 23:56 Clear with Mist and Fog 31 -0.6 31 -0.6 100 100 Calm 30.12 1020 4 6.43736 0 0
11:59 pm 23:59 Clear with Mist and Fog 32 0 32 0 100 100 Calm 30.14 1021 0.75 1.207005 0 0

Powered by AerisWeather